Regional Weather Roundup
Issued by NWS

Home | Current Version | Previous Version | Text Only | Print | Product List | Glossary Off
Versions: 1 2 3 4 5 6 7 8 9 10 11 12 13 14 15 16 17 18 19 20 21 22 23 24 25 26 27 28 29 30 31 32 33 34 35 36 37 38 39 40 41 42 43 44 45 46 47 48 49 50

000
ASUS43 KTOP 190108
RWRKS

WEATHER ROUNDUP FOR KANSAS
NATIONAL WEATHER SERVICE GOODLAND KS
800 PM CDT MON SEP 18 2017

NOTE:  "FAIR" INDICATES FEW OR NO CLOUDS BELOW 12,000 FEET WITH NO
SIGNIFICANT WEATHER AND/OR OBSTRUCTIONS TO VISIBILITY.

KSZ001>006-013>018-027>032-041>047-190200-
NORTHWEST KANSAS

CITY           SKY/WX    TMP DP  RH WIND       PRES   REMARKS
GOODLAND       CLEAR     68  51  54 SE9       29.89S
HAYS           CLEAR     78  60  53 S7        29.84S
HILL CITY      CLEAR     77  55  46 NE5       29.85R
RUSSELL        CLEAR     79  57  46 S5        29.83S
$$

KSZ061>065-074>080-084>089-190200-
SOUTHWEST KANSAS

CITY           SKY/WX    TMP DP  RH WIND       PRES   REMARKS
DODGE CITY     CLEAR     76  58  53 S7        29.88S
ELKHART          N/A     71  60  68 SE6         N/A
GARDEN CITY    CLEAR     76  59  55 S9        29.87S
GREAT BEND     CLEAR     79  62  56 S10       29.85S
LIBERAL        PTCLDY    76  63  64 S6        29.90S
PRATT          CLEAR     78  60  52 S9        29.88S
$$

KSZ066>073-081>083-090>101-190200-
SOUTHEAST KANSAS

CITY           SKY/WX    TMP DP  RH WIND       PRES   REMARKS
CHANUTE        CLEAR     73  67  81 E6        29.93R
COFFEYVILLE    CLEAR     75  67  76 SE5       29.91S
HUTCHINSON     CLEAR     78  64  61 S9        29.86F
MEDICINE LODGE   N/A     80  64  58 S5        29.87R
NEWTON         CLEAR     74  64  71 SE8       29.90S
WICHITA INTL   MOCLDY    79  65  62 SE8       29.88S
WICHITA JABRA  PTCLDY    78  64  61 S12       29.89S
WICHITA MCCONL PTCLDY    79  62  56 S8        29.90R
WINFIELD       MOCLDY    78  66  66 SE7       29.91R
$$

KSZ007>012-019>026-033>040-048>060-102>105-190200-
NORTHEAST KANSAS

CITY           SKY/WX    TMP DP  RH WIND       PRES   REMARKS
CONCORDIA      CLEAR     71  67  87 SE9       29.86S
EMPORIA        CLEAR     74  66  76 SE10      29.89F
LAWRENCE       CLEAR     71  68  90 E6        29.91S
MANHATTAN      CLOUDY    77  67  71 SE9       29.86S
MARYSVILLE     CLEAR     72  64  78 SE3       29.87S
OLATHE IND     CLEAR     70  67  90 E6        29.93F
OLATHE EXE     PTCLDY    69  68  96 E6        29.93F
SALINA         TSTM      75  66  73 N10       29.86R
TOPEKA BILLARD CLEAR     72  69  90 SE7       29.90S
TOPEKA FORBES  CLEAR     72  69  90 SE6       29.91
$$




USA.gov is the U.S. government's official web portal to all federal, state and local government web resources and services.